Simultaneous Nadir Overpasses (SNOs) Predictions

Prediction of SNOs over PacNW region [( 10.00, 139.50) to ( 22.70, 165.60)] between AQUA and NPP Satellites:

Table of predicted SNOs over PacNW region for the next 30.0 days since TLE Epoch: 3/18/2022
Index Date (AQUA) Time (AQUA) AQUA Lat,Lon Date (NPP) Time (NPP) NPP Lat,Lon Distance(km) Time Diff (sec)
1 03/19/2022 15:08:47 22.64, 160.52 03/19/2022 15:11:14 23.35, 157.28 340.91 147
2 03/22/2022 03:30:29 22.67, 148.21 03/22/2022 03:27:24 22.19, 145.89 244.56 185
3 03/27/2022 15:57:43 22.61, 148.31 03/27/2022 16:01:11 26.10, 145.30 493.86 208
4 03/30/2022 02:40:31 22.70, 160.73 03/30/2022 02:37:01 23.55, 158.24 271.97 210
5 04/04/2022 15:07:43 22.62, 160.84 04/04/2022 15:11:11 23.43, 157.31 373.43 208
6 04/07/2022 03:29:21 22.66, 148.55 04/07/2022 03:27:20 22.14, 145.91 278.12 121
7 04/15/2022 02:39:16 22.64, 161.11 04/15/2022 02:36:33 22.11, 158.61 263.91 163
